Location: Ahausen
(50.4985°N, 8.2722°E)
Time: 07:30:15
(UTC+00:00)

YUBILEINY - Pass Details

Date: 30 June 2022
Orbit: 1478 x 1509 km, 82.5° (Epoch: 07 August)

Event Time Altitude Azimuth Distance (km) Brightness Sun altitude
Rises 00:48:29 0° 347° (NNW) 4,659 ? -14.3°
Reaches altitude 10° 00:53:45 10° 13° (NNE) 3,670 ? -14.1°
Maximum altitude 00:57:40 13° 40° (NE) 3,400 ? -13.8°
Drops below altitude 10° 01:01:34 10° 67° (ENE) 3,654 ? -13.6°
Sets 01:06:45 0° 93° (E) 4,623 ? -13.3°
